GFSFLT1_prec_precacc_159.txt.gz
Total_Precipitation_Accumulation
0.00 0.01 0.03 0.04 0.07 0.29 0.67 1.07 1.58 2.74 1.92 1.10 0.63 0.64 0.69 0.72 0.82 0.84 1.41 0.92 0.86 0.88 0.48 0.37 0.36 0.23 0.13 0.11 0.10 0.17 0.11 0.16
0.01 0.01 0.04 0.03 0.16 0.49 0.75 0.83 0.94 0.82 0.38 0.34 0.35 0.49 0.73 0.84 0.90 0.74 1.37 1.14 0.73 0.97 1.06 0.55 0.50 0.30 0.16 0.13 0.20 0.18 0.18 0.19
0.01 0.05 0.11 0.18 0.33 0.37 0.23 0.09 0.06 0.10 0.11 0.15 0.17 0.21 0.45 0.55 1.15 0.83 1.00 1.15 0.50 0.49 0.79 0.74 0.59 0.38 0.34 0.21 0.19 0.16 0.16 0.22
0.04 0.06 0.07 0.06 0.04 0.10 0.05 0.04 0.03 0.03 0.06 0.09 0.17 0.18 0.31 0.55 1.21 1.27 0.87 1.13 0.68 0.38 0.56 0.70 0.69 0.55 0.44 0.25 0.23 0.21 0.14 0.16
0.01 0.01 0.02 0.01 0.07 0.03 0.06 0.10 0.05 0.05 0.03 0.04 0.07 0.10 0.15 0.28 0.62 0.88 0.95 0.95 0.83 0.58 0.61 0.67 0.76 0.56 0.44 0.31 0.31 0.31 0.36 0.25
0.05 0.10 0.04 0.03 0.04 0.06 0.10 0.09 0.11 0.12 0.07 0.08 0.09 0.10 0.18 0.21 0.39 0.89 1.02 1.09 1.27 1.05 0.94 1.03 0.86 0.85 0.59 0.47 0.46 0.51 0.42 0.34
0.35 0.18 0.04 0.02 0.06 0.04 0.08 0.12 0.16 0.19 0.18 0.14 0.18 0.24 0.18 0.18 0.31 0.85 1.11 1.17 1.14 1.23 1.68 1.72 1.50 1.31 1.31 0.97 0.75 0.61 0.49 0.47
0.19 0.17 0.10 0.09 0.12 0.12 0.17 0.17 0.20 0.21 0.19 0.28 0.22 0.19 0.17 0.15 0.19 0.28 0.80 1.36 1.42 1.15 1.26 1.78 1.82 1.67 1.57 1.47 1.50 1.41 1.12 1.03
0.22 0.20 0.15 0.16 0.15 0.19 0.34 0.34 0.27 0.27 0.27 0.32 0.32 0.21 0.22 0.25 0.21 0.24 0.25 0.69 1.32 1.96 1.59 1.42 1.62 1.42 1.76 2.00 1.98 2.10 2.15 2.14
0.40 0.37 0.22 0.17 0.17 0.25 0.38 0.35 0.23 0.29 0.35 0.34 0.37 0.39 0.34 0.33 0.35 0.47 0.49 0.67 1.09 1.98 2.69 2.44 2.28 2.47 2.09 2.34 2.49 2.29 2.30 2.20
0.63 0.68 0.44 0.25 0.19 0.33 0.46 0.39 0.34 0.35 0.48 0.50 0.53 0.47 0.53 0.48 0.59 1.08 1.47 1.08 1.38 1.50 2.14 3.04 3.26 3.14 3.18 2.91 2.83 2.43 2.31 2.11
0.81 0.92 0.74 0.45 0.31 0.37 0.47 0.54 0.52 0.58 0.69 0.75 0.76 0.87 1.17 1.21 1.22 1.79 2.09 1.74 1.88 2.51 2.36 2.35 2.73 2.77 3.32 3.39 2.92 2.65 2.40 2.11
1.14 1.05 0.78 0.62 0.51 0.38 0.29 0.49 0.79 0.70 0.79 1.01 0.96 1.10 1.56 2.03 2.21 2.37 3.12 3.51 2.82 2.86 2.74 2.09 1.93 1.95 2.21 3.06 2.93 2.40 2.22 1.91
1.31 1.75 1.43 0.86 0.61 0.50 0.37 0.31 0.55 0.72 0.98 1.12 1.64 1.90 1.76 1.92 1.90 1.90 2.16 2.63 2.34 2.58 2.48 2.23 1.82 1.55 1.51 1.58 2.34 2.45 1.86 1.67
1.41 1.53 1.82 1.23 1.01 0.76 0.52 0.40 0.42 0.59 0.73 1.04 1.03 1.29 1.66 1.81 2.00 2.06 2.50 2.40 2.54 2.72 2.93 1.92 1.46 1.29 1.13 1.04 1.05 1.52 1.83 1.49
0.95 1.06 1.51 1.34 1.23 1.07 0.71 0.56 0.50 0.51 0.56 0.76 1.11 0.86 1.01 1.01 1.14 1.38 1.53 1.82 2.13 2.57 2.72 2.23 1.49 1.36 1.29 1.09 1.03 1.01 1.35 1.69
0.94 0.78 0.74 0.78 0.75 0.76 0.69 0.76 0.65 0.65 0.62 0.57 0.67 0.66 0.65 0.74 0.77 0.85 0.86 0.94 0.98 1.19 1.60 2.24 2.21 1.70 1.89 1.54 1.17 1.03 1.08 1.32
0.69 0.64 0.59 0.47 0.45 0.48 0.57 0.56 0.61 0.47 0.70 0.70 0.48 0.55 0.66 0.52 0.53 0.54 0.59 0.66 0.92 0.92 0.86 1.11 1.55 1.56 2.37 2.34 2.27 1.19 1.17 1.26
0.34 0.16 0.13 0.11 0.17 0.25 0.34 0.46 0.46 0.52 0.46 0.40 0.59 0.46 0.33 0.33 0.36 0.49 0.52 0.66 0.66 0.65 0.79 0.76 0.76 1.05 1.71 1.95 3.01 2.79 1.74 1.48

GFSFLT1_prec_precacc_162.txt.gz
Total_Precipitation_Accumulation
0.00 0.01 0.03 0.04 0.07 0.29 0.67 1.07 1.58 2.74 1.92 1.10 0.63 0.64 0.69 0.72 0.82 0.84 1.41 0.92 0.86 0.88 0.48 0.37 0.36 0.23 0.13 0.11 0.10 0.17 0.11 0.16
0.01 0.01 0.04 0.03 0.16 0.49 0.75 0.83 0.94 0.82 0.38 0.34 0.35 0.49 0.73 0.84 0.90 0.74 1.37 1.14 0.73 0.97 1.06 0.55 0.50 0.30 0.16 0.13 0.20 0.18 0.18 0.19
0.01 0.05 0.11 0.18 0.33 0.37 0.23 0.09 0.06 0.10 0.11 0.15 0.17 0.21 0.45 0.55 1.15 0.83 1.00 1.15 0.50 0.49 0.79 0.74 0.59 0.38 0.34 0.21 0.19 0.16 0.16 0.22
0.04 0.06 0.07 0.06 0.04 0.10 0.05 0.04 0.03 0.03 0.06 0.09 0.17 0.18 0.31 0.55 1.21 1.27 0.87 1.13 0.68 0.38 0.56 0.70 0.69 0.55 0.44 0.25 0.23 0.21 0.14 0.16
0.01 0.01 0.02 0.01 0.07 0.03 0.06 0.10 0.05 0.05 0.03 0.04 0.07 0.10 0.15 0.28 0.62 0.88 0.95 0.95 0.83 0.58 0.61 0.67 0.76 0.56 0.44 0.31 0.32 0.32 0.37 0.25
0.05 0.10 0.04 0.03 0.04 0.06 0.10 0.09 0.11 0.12 0.07 0.08 0.09 0.10 0.18 0.21 0.39 0.89 1.02 1.09 1.27 1.05 0.94 1.03 0.87 0.85 0.59 0.47 0.46 0.51 0.43 0.35
0.35 0.18 0.04 0.02 0.06 0.04 0.08 0.12 0.16 0.19 0.18 0.14 0.18 0.24 0.18 0.18 0.31 0.85 1.11 1.17 1.14 1.23 1.68 1.72 1.50 1.31 1.31 0.97 0.75 0.62 0.50 0.47
0.19 0.17 0.10 0.09 0.12 0.12 0.17 0.17 0.20 0.21 0.19 0.28 0.22 0.19 0.17 0.15 0.19 0.28 0.80 1.36 1.42 1.15 1.26 1.78 1.82 1.67 1.57 1.47 1.51 1.42 1.12 1.04
0.22 0.20 0.15 0.16 0.15 0.19 0.34 0.34 0.27 0.27 0.27 0.32 0.32 0.21 0.22 0.25 0.21 0.24 0.25 0.69 1.32 1.96 1.59 1.42 1.62 1.42 1.76 2.00 1.99 2.10 2.15 2.15
0.40 0.37 0.22 0.17 0.17 0.25 0.38 0.35 0.23 0.29 0.35 0.34 0.37 0.39 0.34 0.33 0.35 0.47 0.49 0.67 1.09 1.98 2.69 2.44 2.28 2.47 2.09 2.34 2.49 2.30 2.30 2.21
0.63 0.68 0.44 0.25 0.19 0.33 0.46 0.39 0.34 0.35 0.48 0.50 0.53 0.47 0.53 0.48 0.59 1.08 1.47 1.08 1.38 1.50 2.14 3.04 3.26 3.14 3.18 2.91 2.83 2.44 2.31 2.12
0.81 0.92 0.74 0.45 0.31 0.37 0.47 0.54 0.52 0.58 0.69 0.75 0.76 0.87 1.17 1.21 1.22 1.79 2.09 1.74 1.88 2.51 2.36 2.35 2.73 2.77 3.32 3.40 2.93 2.65 2.40 2.11
1.14 1.05 0.78 0.62 0.51 0.38 0.29 0.49 0.79 0.70 0.79 1.01 0.96 1.10 1.56 2.03 2.21 2.37 3.12 3.51 2.82 2.86 2.74 2.09 1.93 1.95 2.21 3.06 2.93 2.40 2.22 1.91
1.31 1.75 1.43 0.86 0.61 0.50 0.37 0.31 0.55 0.72 0.98 1.12 1.64 1.90 1.76 1.92 1.90 1.90 2.16 2.63 2.34 2.58 2.48 2.23 1.83 1.55 1.51 1.58 2.34 2.45 1.86 1.68
1.41 1.53 1.82 1.23 1.01 0.76 0.52 0.40 0.42 0.59 0.73 1.04 1.03 1.29 1.66 1.81 2.00 2.06 2.50 2.40 2.54 2.72 2.93 1.92 1.47 1.30 1.13 1.05 1.05 1.52 1.83 1.49
0.95 1.06 1.51 1.34 1.23 1.07 0.71 0.56 0.50 0.51 0.56 0.76 1.11 0.86 1.01 1.01 1.14 1.38 1.53 1.82 2.13 2.57 2.72 2.23 1.49 1.37 1.29 1.10 1.03 1.01 1.35 1.69
0.94 0.78 0.74 0.78 0.76 0.76 0.69 0.76 0.65 0.65 0.62 0.57 0.67 0.66 0.65 0.74 0.77 0.85 0.86 0.94 0.98 1.19 1.60 2.24 2.21 1.70 1.89 1.55 1.17 1.04 1.08 1.32
0.69 0.64 0.60 0.47 0.45 0.48 0.57 0.56 0.61 0.47 0.70 0.70 0.48 0.55 0.66 0.52 0.53 0.54 0.59 0.66 0.92 0.92 0.86 1.11 1.55 1.56 2.37 2.34 2.27 1.19 1.17 1.26
0.35 0.17 0.15 0.11 0.17 0.25 0.34 0.46 0.46 0.52 0.46 0.40 0.59 0.46 0.34 0.33 0.36 0.49 0.52 0.66 0.67 0.65 0.79 0.76 0.76 1.06 1.71 1.95 3.02 2.79 1.74 1.48

GFSFLT1_prec_precacc_168.txt.gz
Total_Precipitation_Accumulation
0.00 0.01 0.03 0.04 0.07 0.29 0.67 1.07 1.58 2.74 1.92 1.10 0.63 0.64 0.69 0.72 0.82 0.84 1.41 0.92 0.86 0.88 0.48 0.37 0.36 0.23 0.13 0.11 0.10 0.17 0.11 0.16
0.01 0.01 0.04 0.03 0.16 0.49 0.75 0.83 0.94 0.82 0.38 0.34 0.35 0.49 0.73 0.84 0.90 0.74 1.37 1.14 0.73 0.97 1.06 0.55 0.50 0.30 0.16 0.13 0.20 0.18 0.18 0.19
0.01 0.05 0.11 0.18 0.33 0.37 0.23 0.09 0.06 0.10 0.11 0.15 0.17 0.21 0.45 0.55 1.15 0.83 1.00 1.15 0.50 0.49 0.79 0.74 0.59 0.38 0.34 0.21 0.19 0.16 0.16 0.22
0.04 0.06 0.07 0.06 0.04 0.10 0.05 0.04 0.03 0.03 0.06 0.09 0.17 0.18 0.31 0.55 1.21 1.27 0.87 1.13 0.68 0.38 0.56 0.70 0.69 0.55 0.44 0.25 0.23 0.21 0.15 0.16
0.01 0.01 0.02 0.01 0.07 0.03 0.06 0.10 0.05 0.05 0.03 0.04 0.07 0.10 0.15 0.28 0.62 0.88 0.95 0.95 0.83 0.58 0.61 0.67 0.76 0.56 0.44 0.31 0.32 0.32 0.37 0.25
0.05 0.10 0.04 0.03 0.04 0.06 0.10 0.09 0.11 0.12 0.07 0.08 0.09 0.10 0.18 0.21 0.39 0.89 1.02 1.09 1.27 1.05 0.94 1.03 0.87 0.85 0.59 0.47 0.46 0.51 0.43 0.35
0.35 0.18 0.04 0.02 0.06 0.04 0.08 0.12 0.16 0.19 0.18 0.14 0.18 0.24 0.18 0.18 0.31 0.85 1.11 1.17 1.14 1.23 1.68 1.72 1.50 1.31 1.31 0.97 0.75 0.62 0.50 0.48
0.19 0.17 0.10 0.09 0.12 0.12 0.17 0.17 0.20 0.21 0.19 0.28 0.22 0.19 0.17 0.15 0.19 0.28 0.80 1.36 1.42 1.15 1.26 1.78 1.82 1.67 1.57 1.47 1.51 1.42 1.12 1.04
0.22 0.20 0.15 0.16 0.15 0.19 0.34 0.34 0.27 0.27 0.27 0.32 0.32 0.21 0.22 0.25 0.21 0.24 0.25 0.69 1.32 1.96 1.59 1.42 1.62 1.42 1.76 2.00 1.99 2.10 2.15 2.15
0.40 0.37 0.22 0.17 0.17 0.25 0.38 0.35 0.23 0.29 0.35 0.34 0.37 0.39 0.34 0.33 0.35 0.47 0.49 0.67 1.09 1.98 2.69 2.44 2.28 2.47 2.09 2.34 2.49 2.30 2.31 2.21
0.63 0.68 0.44 0.25 0.19 0.33 0.46 0.39 0.34 0.35 0.48 0.50 0.53 0.47 0.53 0.48 0.59 1.08 1.47 1.08 1.38 1.50 2.14 3.04 3.26 3.14 3.18 2.91 2.83 2.44 2.31 2.12
0.81 0.92 0.74 0.45 0.31 0.37 0.47 0.54 0.52 0.58 0.69 0.75 0.76 0.87 1.17 1.21 1.22 1.79 2.09 1.74 1.88 2.51 2.36 2.35 2.73 2.77 3.32 3.40 2.93 2.65 2.41 2.12
1.14 1.05 0.78 0.62 0.51 0.38 0.29 0.49 0.79 0.70 0.79 1.01 0.96 1.10 1.56 2.03 2.21 2.37 3.12 3.51 2.82 2.86 2.74 2.09 1.93 1.95 2.21 3.07 2.93 2.40 2.22 1.92
1.31 1.75 1.43 0.86 0.61 0.50 0.37 0.31 0.55 0.72 0.98 1.12 1.64 1.90 1.76 1.92 1.90 1.90 2.16 2.63 2.34 2.58 2.48 2.23 1.83 1.55 1.51 1.59 2.34 2.45 1.86 1.68
1.41 1.53 1.82 1.23 1.01 0.76 0.52 0.40 0.42 0.59 0.73 1.04 1.03 1.29 1.66 1.81 2.00 2.06 2.50 2.40 2.54 2.72 2.93 1.92 1.47 1.30 1.14 1.05 1.05 1.52 1.84 1.49
0.95 1.06 1.51 1.34 1.23 1.07 0.71 0.56 0.50 0.51 0.56 0.76 1.11 0.86 1.01 1.01 1.14 1.38 1.53 1.82 2.13 2.57 2.72 2.23 1.49 1.37 1.29 1.10 1.04 1.02 1.36 1.69
0.94 0.78 0.74 0.78 0.76 0.76 0.69 0.76 0.65 0.65 0.62 0.57 0.67 0.66 0.65 0.74 0.77 0.85 0.86 0.94 0.98 1.19 1.60 2.24 2.21 1.70 1.89 1.55 1.18 1.05 1.09 1.33
0.69 0.64 0.60 0.47 0.45 0.48 0.57 0.56 0.61 0.47 0.70 0.70 0.48 0.55 0.66 0.52 0.53 0.54 0.59 0.66 0.92 0.92 0.86 1.11 1.56 1.57 2.37 2.34 2.27 1.20 1.18 1.27
0.35 0.17 0.15 0.11 0.17 0.25 0.34 0.46 0.46 0.52 0.46 0.40 0.59 0.46 0.34 0.33 0.36 0.49 0.52 0.66 0.67 0.65 0.79 0.76 0.76 1.06 1.71 1.96 3.02 2.80 1.75 1.48

GFSFLT1_prec_precacc_174.txt.gz
Total_Precipitation_Accumulation
0.00 0.01 0.03 0.04 0.07 0.29 0.67 1.07 1.58 2.74 1.92 1.10 0.63 0.64 0.69 0.72 0.82 0.84 1.41 0.92 0.86 0.88 0.48 0.37 0.36 0.23 0.13 0.11 0.10 0.17 0.11 0.16
0.01 0.01 0.04 0.03 0.16 0.49 0.75 0.83 0.94 0.82 0.38 0.34 0.35 0.49 0.73 0.84 0.90 0.74 1.37 1.14 0.73 0.97 1.06 0.55 0.50 0.30 0.16 0.13 0.20 0.18 0.18 0.19
0.01 0.05 0.11 0.18 0.33 0.37 0.23 0.09 0.06 0.10 0.11 0.15 0.17 0.21 0.45 0.55 1.15 0.83 1.00 1.15 0.50 0.49 0.79 0.74 0.59 0.38 0.34 0.21 0.19 0.16 0.16 0.22
0.04 0.06 0.07 0.06 0.04 0.10 0.05 0.04 0.03 0.03 0.06 0.09 0.17 0.18 0.31 0.55 1.21 1.27 0.87 1.13 0.68 0.38 0.56 0.70 0.69 0.55 0.44 0.25 0.23 0.21 0.15 0.16
0.01 0.01 0.02 0.01 0.07 0.03 0.06 0.10 0.05 0.05 0.03 0.04 0.07 0.10 0.15 0.28 0.62 0.88 0.95 0.95 0.83 0.58 0.61 0.67 0.76 0.56 0.44 0.31 0.32 0.32 0.38 0.26
0.05 0.10 0.04 0.03 0.04 0.06 0.10 0.09 0.11 0.12 0.07 0.08 0.09 0.10 0.18 0.21 0.39 0.89 1.02 1.09 1.27 1.05 0.94 1.03 0.87 0.85 0.59 0.47 0.46 0.51 0.44 0.36
0.35 0.18 0.04 0.02 0.06 0.04 0.08 0.12 0.16 0.19 0.18 0.14 0.18 0.24 0.18 0.18 0.31 0.85 1.11 1.17 1.14 1.23 1.68 1.72 1.50 1.31 1.31 0.97 0.75 0.62 0.50 0.48
0.19 0.17 0.10 0.09 0.12 0.12 0.17 0.17 0.20 0.21 0.19 0.28 0.22 0.19 0.17 0.15 0.19 0.28 0.80 1.36 1.42 1.15 1.26 1.78 1.82 1.67 1.57 1.47 1.51 1.42 1.12 1.04
0.22 0.20 0.15 0.16 0.15 0.19 0.34 0.34 0.27 0.27 0.27 0.32 0.32 0.21 0.22 0.25 0.21 0.24 0.25 0.69 1.32 1.96 1.59 1.42 1.62 1.42 1.76 2.00 1.99 2.10 2.16 2.15
0.40 0.37 0.22 0.17 0.17 0.25 0.38 0.35 0.23 0.29 0.35 0.34 0.37 0.39 0.34 0.33 0.35 0.47 0.49 0.67 1.09 1.98 2.69 2.44 2.28 2.47 2.09 2.34 2.49 2.30 2.31 2.21
0.63 0.68 0.44 0.25 0.19 0.33 0.46 0.39 0.34 0.35 0.48 0.50 0.53 0.47 0.53 0.48 0.59 1.08 1.47 1.08 1.38 1.50 2.14 3.04 3.26 3.14 3.18 2.91 2.83 2.44 2.31 2.12
0.81 0.92 0.74 0.45 0.31 0.37 0.47 0.54 0.52 0.58 0.69 0.75 0.76 0.87 1.17 1.21 1.22 1.79 2.09 1.74 1.88 2.51 2.36 2.35 2.73 2.77 3.32 3.40 2.93 2.65 2.41 2.12
1.14 1.05 0.78 0.62 0.51 0.38 0.29 0.49 0.79 0.70 0.79 1.01 0.96 1.10 1.56 2.03 2.21 2.37 3.12 3.51 2.82 2.86 2.74 2.09 1.93 1.95 2.21 3.07 2.93 2.40 2.22 1.92
1.31 1.75 1.43 0.86 0.61 0.50 0.37 0.31 0.55 0.72 0.98 1.12 1.64 1.90 1.76 1.92 1.90 1.90 2.16 2.63 2.34 2.58 2.48 2.23 1.83 1.55 1.51 1.59 2.34 2.45 1.86 1.68
1.41 1.53 1.82 1.23 1.01 0.76 0.52 0.40 0.42 0.59 0.73 1.04 1.03 1.29 1.66 1.81 2.00 2.06 2.50 2.40 2.54 2.72 2.93 1.93 1.47 1.30 1.14 1.05 1.05 1.52 1.84 1.49
0.95 1.06 1.51 1.34 1.23 1.07 0.71 0.56 0.50 0.51 0.56 0.76 1.11 0.86 1.01 1.01 1.14 1.38 1.53 1.82 2.13 2.57 2.72 2.23 1.49 1.37 1.30 1.10 1.04 1.02 1.36 1.69
0.94 0.78 0.74 0.78 0.76 0.76 0.69 0.76 0.65 0.65 0.62 0.57 0.67 0.66 0.65 0.74 0.77 0.85 0.86 0.94 0.98 1.19 1.60 2.24 2.21 1.72 1.90 1.55 1.18 1.05 1.09 1.33
0.70 0.64 0.60 0.47 0.45 0.48 0.57 0.56 0.61 0.47 0.70 0.70 0.48 0.55 0.66 0.52 0.53 0.54 0.59 0.66 0.92 0.92 0.86 1.11 1.56 1.57 2.37 2.34 2.28 1.20 1.18 1.27
0.36 0.18 0.16 0.12 0.18 0.26 0.35 0.47 0.46 0.52 0.46 0.40 0.59 0.46 0.34 0.33 0.36 0.49 0.52 0.66 0.67 0.65 0.79 0.76 0.76 1.06 1.71 1.96 3.02 2.80 1.75 1.49